Showing default

YAOGAN-32 B, 43643

Orbit data source: Space-Track

YAOGAN-32 B, 43643 is a payload satellite owned by PLA SSF (CN) in SSO that was launched on Tue, 09 Oct 2018 UTC via a CHANG ZHENG 2C/YZ-1S launch vehicle from the Jiuquan Satellite Launch Center, China (JSC). Payload-class satellites include a variety of spacecraft equipped with specific instruments for various scientific and technological missions. These include communications satellites like Starlink; space stations such as the ISS; scientific satellites like the Hubble; Earth observation satellites from companies like Planet Labs, Umbra, and HawkEye 360; GPS; miniature CubeSats for education and research; and military/defense satellites.

Loading next visibility...
Identifier
43643, 2018-077B
Orbit
SSO
Last TLE update
4 hours ago
Origin
Manufacturer
SECM?
Mission
Operational Defense Sigint
Bus & Motor
Unknown
Mass
~500 kg wet, ~500 kg dry
Launch date (UTC)
2018-10-09 (7 years ago)
Launch vehicle
CHANG ZHENG 2C/YZ-1S
Launch site
Jiuquan Satellite Launch Center, China (JSC)
Object type
Payload
Rocket body
Debris
Shape & HBR
Box + 2 Pan, 0.5 m
Radar Cross Section
0.446 m², Large (>1 m²)

Expand to show TLE details & history

TLE from 4 hours ago
0 YAOGAN-32 B
1 43643U 18077B   25199.82553037  .00000527  00000-0  11262-3 0  9991
2 43643  97.9396 232.3260 0001649  95.4638 264.6752 14.62613265361095
Epoch: 2025-07-18T19:48Z
TLE epoch observation values (Epoch: 2025-07-18T19:48:45.823Z)
Latitude
-0.0001°
Longitude
-1.73634°
Altitude
687.853 km
Speed
7.512 km/s
True Right ascension
15h 29m 18s
True Declination
0° 00' 00"
Sunlit
Object was in daylight at epoch
Visualization orbit readout
Latitude
59.05445°
Longitude
-14.97097°
Altitude
693.801 km
Speed
7.515 km/s
Apparent Right ascension
20h 58m 38s
Apparent Declination
33° 51' 20"
Sunlit
Object is in daylight
Visualization observer readout
Local Sidereal Time
12:09:44
Azimuth
38.059° NE
Elevation
-4.048°
Doppler factor
1
Orbital elements
Apogee altitude
682.979 km
Perigee altitude
680.65 km
Semi-major axis
7,059.951 km
Eccentricity
0.00016
Inclination
97.9396°
RAAN
232.326°
Arg. of periapsis
95.4638°
True anomaly
264.65639°
Mean anomaly
264.6752°
Eccentric anomaly
264.66579°
Mean motion
3.65882 °/min
Orbital period
98.39 mins
BSTAR
0.00011262
Loading maneuver chart data...
Loading SW <> Apogee altitude chart data...
Loading historical data...
Loading historical data...
Loading historical data...
Loading historical data...
Loading historical data...
Loading historical data...
Loading historical data...
Other satellites on launch #77 in the year 2018 (2018-10-09 UTC)
|